Torna al catalogo

STARLINK-1609

AttivoComunicazioniVLEO
NORAD 47621·PAYLOAD·🇺🇸 United States

Lanciato Feb 16, 2021 da Cape Canaveral Space Force Station

Loading…

Prossimi Passaggi (prossime 24 ore)

TLE

AggiornatoSource: CelesTrak SupGP

Epoca: Sep 14, 2026, 21:44 UTC

1 47621C 21012B   26257.90604167  .00112560  00000+0  14613-2 0  2579
2 47621  53.1514 245.1183 0004288  58.0963 334.7154 15.58130056    10

Traccia STARLINK-1609 in tempo reale con AllMySat

Download on the App Store